| time (UTC) | temp F | wind direction | speed MPH | gust MPH | rain 1hr in | rain 24hr in | rain mn in | humidity % | barometer mb |
| 20260505024508 | 63 | 107 | 0.0 | 2.0 | 0.00 | 0.00 | 0.00 | 53 | 1010.8 |
| 20260505023008 | 63 | 104 | 0.0 | 2.0 | 0.00 | 0.00 | 0.00 | 53 | 1010.8 |
| 20260505021508 | 63 | 120 | 0.0 | 2.0 | 0.00 | 0.00 | 0.00 | 53 | 1010.8 |
| 20260505020007 | 63 | 121 | 1.0 | 2.0 | 0.00 | 0.00 | 0.00 | 54 | 1010.7 |
| 20260505014512 | 64 | 144 | 0.0 | 2.0 | 0.00 | 0.00 | 0.00 | 54 | 1010.5 |
| 20260505013006 | 64 | 141 | 0.0 | 2.0 | 0.00 | 0.00 | 0.00 | 54 | 1010.6 |
| 20260505011509 | 65 | 127 | 0.0 | 2.0 | 0.00 | 0.00 | 0.00 | 53 | 1010.5 |
| 20260505010012 | 65 | 116 | 0.0 | 2.0 | 0.00 | 0.00 | 0.00 | 53 | 1010.3 |
| 20260505004505 | 66 | 134 | 1.0 | 3.0 | 0.00 | 0.00 | 0.00 | 52 | 1010.1 |
| 20260505003004 | 66 | 125 | 0.0 | 2.0 | 0.00 | 0.00 | 0.00 | 52 | 1010.2 |
| 20260505001504 | 66 | 116 | 1.0 | 4.0 | 0.00 | 0.00 | 0.00 | 51 | 1010.1 |
| 20260505000005 | 67 | 135 | 1.0 | 3.0 | 0.00 | 0.00 | 0.00 | 48 | 1010.1 |
| 20260504234502 | 69 | 234 | 0.0 | 2.0 | 0.00 | 0.00 | 0.00 | 46 | 1010.1 |
| 20260504233002 | 70 | 122 | 0.0 | 4.0 | 0.00 | 0.00 | 0.00 | 44 | 1009.9 |
| 20260504231502 | 71 | 108 | 1.0 | 7.0 | 0.00 | 0.00 | 0.00 | 43 | 1009.9 |
| 20260504230002 | 71 | 97 | 2.0 | 6.0 | 0.00 | 0.00 | 0.00 | 42 | 1010.1 |
| 20260504224503 | 72 | 108 | 1.0 | 8.0 | 0.00 | 0.00 | 0.00 | 40 | 1010.0 |
| 20260504223110 | 72 | 110 | 3.0 | 9.0 | 0.00 | 0.00 | 0.00 | 39 | 1010.0 |
| 20260504221559 | 72 | 92 | 4.0 | 14.0 | 0.00 | 0.00 | 0.00 | 39 | 1009.8 |
| 20260504220101 | 73 | 91 | 3.0 | 12.0 | 0.00 | 0.00 | 0.00 | 39 | 1009.8 |
| 20260504214557 | 74 | 143 | 4.0 | 9.0 | 0.00 | 0.00 | 0.00 | 37 | 1009.9 |
| 20260504213101 | 76 | 76 | 1.0 | 5.0 | 0.00 | 0.00 | 0.00 | 35 | 1009.9 |
| 20260504211559 | 76 | 76 | 1.0 | 7.0 | 0.00 | 0.00 | 0.00 | 34 | 1009.9 |
| 20260504210101 | 76 | 109 | 0.0 | 4.0 | 0.00 | 0.00 | 0.00 | 34 | 1009.9 |
| 20260504204554 | 76 | 67 | 2.0 | 9.0 | 0.00 | 0.00 | 0.00 | 33 | 1010.0 |
| 20260504203050 | 76 | 101 | 1.0 | 6.0 | 0.00 | 0.00 | 0.00 | 34 | 1010.1 |
| 20260504201549 | 76 | 102 | 1.0 | 6.0 | 0.00 | 0.00 | 0.00 | 34 | 1010.3 |
| 20260504200057 | 76 | 269 | 0.0 | 5.0 | 0.00 | 0.00 | 0.00 | 35 | 1010.5 |
| 20260504194542 | 76 | 102 | 0.0 | 6.0 | 0.00 | 0.00 | 0.00 | 35 | 1010.7 |
| 20260504193044 | 76 | 228 | 2.0 | 5.0 | 0.00 | 0.00 | 0.00 | 35 | 1011.0 |
| 20260504191540 | 75 | 337 | 2.0 | 6.0 | 0.00 | 0.00 | 0.00 | 37 | 1011.2 |
| 20260504190037 | 76 | 93 | 2.0 | 6.0 | 0.00 | 0.00 | 0.00 | 36 | 1011.5 |
| 20260504184538 | 75 | 77 | 1.0 | 5.0 | 0.00 | 0.00 | 0.00 | 36 | 1011.8 |
| 20260504183036 | 75 | 110 | 1.0 | 5.0 | 0.00 | 0.00 | 0.00 | 37 | 1011.9 |
| 20260504181531 | 75 | 27 | 0.0 | 9.0 | 0.00 | 0.00 | 0.00 | 35 | 1012.0 |
| 20260504180028 | 74 | 245 | 1.0 | 5.0 | 0.00 | 0.00 | 0.00 | 34 | 1012.4 |
| 20260504174524 | 75 | 74 | 1.0 | 4.0 | 0.00 | 0.00 | 0.00 | 34 | 1012.5 |
| 20260504173023 | 74 | 108 | 1.0 | 5.0 | 0.00 | 0.00 | 0.00 | 34 | 1012.8 |
| 20260504171521 | 74 | 58 | 0.0 | 6.0 | 0.00 | 0.00 | 0.00 | 37 | 1012.9 |
| 20260504081546 | 50 | 358 | 0.0 | 2.0 | 0.00 | 0.00 | 0.00 | 65 | 1015.9 |
| 20260504050018 | 44 | 106 | 0.0 | 0.0 | 0.00 | 0.00 | 0.00 | 74 | 1016.0 |
| 20260504044518 | 43 | 106 | 0.0 | 0.0 | 0.00 | 0.00 | 0.00 | 75 | 1016.0 |
| 20260504043016 | 43 | 106 | 0.0 | 0.0 | 0.00 | 0.00 | 0.00 | 74 | 1016.1 |
| 20260504041511 | 44 | 106 | 0.0 | 0.0 | 0.00 | 0.00 | 0.00 | 73 | 1016.1 |
| 20260504040008 | 43 | 106 | 0.0 | 0.0 | 0.00 | 0.00 | 0.00 | 73 | 1016.1 |
| 20260504034510 | 44 | 106 | 0.0 | 0.0 | 0.00 | 0.00 | 0.00 | 72 | 1015.9 |
| 20260504033007 | 44 | 106 | 0.0 | 0.0 | 0.00 | 0.00 | 0.00 | 69 | 1015.8 |
| 20260504031511 | 45 | 106 | 0.0 | 2.0 | 0.00 | 0.00 | 0.00 | 67 | 1015.7 |
| 20260504030007 | 45 | 317 | 0.0 | 2.0 | 0.00 | 0.00 | 0.00 | 69 | 1015.4 |